• Processing (Info)

  • MPEC 2023-G17 : 2023 FG14

    The following Minor Planet Electronic Circular may be linked-to from your own Web pages, but must not otherwise be redistributed electronically.

    A form allowing access to any MPEC is at the bottom of this page.


    Read MPEC 2023-G16 Read MPEC 2023-G18


    M.P.E.C. 2023-G17                                 Issued 2023 April 2, 11:10 UT
    
         The Minor Planet Electronic Circulars contain information on unusual
             minor planets, routine data on comets and natural satellites,
             and occasional editorial announcements.  They are published
        on behalf of Division F of the International Astronomical Union by the
              Minor Planet Center, Smithsonian Astrophysical Observatory,
                              Cambridge, MA 02138, U.S.A.
    			  
                 Prepared using the Tamkin Foundation Computer Network
    
                                  MPC@CFA.HARVARD.EDU
                URL https://www.minorplanetcenter.net/    ISSN 1523-6714
    
                                    2023 FG14                                
    
    
    Observations:
         K23F14G*1C2023 03 29.39632816 05 54.262+54 12 09.94         22.54GVEG017G96
         K23F14G 1C2023 03 29.40159016 05 53.711+54 12 09.68         22.46GVEG017G96
         K23F14G 1C2023 03 29.40685216 05 53.246+54 12 11.12         21.85GVEG017G96
         K23F14G 1C2023 03 29.41212216 05 52.537+54 12 12.78         21.47GVEG017G96
         K23F14G KC2023 03 29.47287516 05 46.380+54 12 17.80               VEG017V06
         K23F14G KC2023 03 29.47922516 05 45.790+54 12 18.50               VEG017V06
         K23F14G KC2023 03 29.48557716 05 45.100+54 12 19.30         22.80GVEG017V06
         K23F14G KC2023 03 30.36608816 04 24.280+54 13 27.00               VEG017V06
         K23F14G KC2023 03 30.38038916 04 22.730+54 13 29.40         21.96GVEG017V06
         K23F14G KC2023 03 30.40898516 04 19.810+54 13 31.10               VEG017V06
         K23F14G 1C2023 04 02.37994515 59 22.350+54 13 45.60         22.82GVEG017G96
         K23F14G 1C2023 04 02.38673815 59 21.520+54 13 45.70         22.56GVEG017G96
         K23F14G 1C2023 04 02.39344115 59 20.810+54 13 46.30         22.20GVEG017G96
    
    Observer details:
    G96 Mt. Lemmon Survey.  Observers G. J. Leonard, J. B. Fazekas.  Measurers E.
        J. Christensen, D. Fay, J. B. Fazekas, D. C. Fuls, A. R. Gibbs, A. D.
        Grauer, H. Groeller, J. K. Hogan, R. A. Kowalski, S. M. Larson, G. J.
        Leonard, D. Rankin, R. L. Seaman, A. Serrano, F. C. Shelly, K. W.
        Wierzchos.  1.5-m reflector + 10K CCD.
    V06 Catalina Sky Survey-Kuiper.  Observers J. B. Fazekas, D. C. Fuls.
        Measurers E. J. Christensen, D. Fay, J. B. Fazekas, D. C. Fuls, A. R.
        Gibbs, A. D. Grauer, H. Groeller, J. K. Hogan, R. A. Kowalski, S. M.
        Larson, G. J. Leonard, D. Rankin, R. L. Seaman, A. Serrano, F. C. Shelly,
        K. W. Wierzchos.  1.55-m reflector + 1K CCD.
    
    Orbital elements:
    2023 FG14                                           PHA, Earth MOID = 0.0371 AU
    Epoch 2023 Feb. 25.0 TT = JDT 2460000.5                 Veres                   
    M  17.91895              (2000.0)            P               Q                  
    n   0.46829086     Peri.    2.00670     -0.54751572     -0.76346821             
    a   1.6423243      Node   121.36218     +0.76204886     -0.62403404             
    e   0.3781068      Incl.   23.65109     +0.34569940     +0.16642660             
    P   2.10           H   21.74          G   0.15           U   9                  
    Residuals in seconds of arc
    230329 G96  0.1-  0.4+    230329 V06  0.3-  0.1-    230402 G96  0.1+  0.6-
    230329 G96  0.3-  0.5-    230329 V06  0.7-  0.2+    230402 G96  0.4-  0.3-
    230329 G96  0.3+  0.3+    230330 V06  0.2+  0.5-    230402 G96  0.2+  0.5+
    230329 G96 (1.2-  1.3+)   230330 V06  0.4-  0.4+
    230329 V06  0.8-  0.2-    230330 V06  0.3+  0.5-
    
    Ephemeris:
    2023 FG14                a,e,i = 1.64, 0.38, 24                  q = 1.0214
    Date    TT    R. A. (2000) Decl.     Delta      r    Elong.  Phase     V
    2023 03 03    16 17 37.8 +50 30 28   0.3595  1.1175   101.1    60.5    21.9
    ...
    2023 03 18    16 18 28.6 +53 16 42   0.4408  1.1834   104.2    54.6    22.3
    ...
    2023 03 26    16 10 40.5 +54 03 00   0.4799  1.2225   106.4    51.5    22.5
    ...
    2023 04 01    16 01 43.7 +54 14 16   0.5078  1.2531   108.1    49.3    22.6
    2023 04 02    16 00 01.4 +54 13 58   0.5123  1.2583   108.4    48.9    22.6
    2023 04 03    15 58 16.0 +54 13 01   0.5169  1.2635   108.6    48.6    22.6
    ...
    2023 04 09    15 46 47.9 +53 52 57   0.5438  1.2952   110.4    46.4    22.7
    ...
    2023 04 17    15 29 59.3 +52 45 30   0.5796  1.3383   112.6    43.8    22.9
    ...
    2023 05 02    14 59 50.7 +48 28 51   0.6513  1.4204   116.1    39.6    23.1
    
    M. P. C. Staff               (C) Copyright 2023 MPC           M.P.E.C. 2023-G17
    


    Read MPEC 2023-G16 Read MPEC 2023-G18


    MPEC number:

    Enter an MPEC number in one of the following forms:

    • 1997-B01 (the full form)
    • J97B01 (the packed version of the full form)
    • B01 (the abbreviated form)